STARLINK-5711 (55471 NORAD) Tracking and Keplerian Element Data

This shows tracking and keplerian element data for the satellite.

Feedback or suggestion? Click here.




ElementValue
Catalog55471
NameSTARLINK-5711
Epoch Orbit831
Epoch Day85.25001157
Epoch Year2023
RAAN76.7207
Inclination43.0009
Eccentricity0.0001418
Argument of Perigee273.6434
Mean Anonmoly154.0496
Mean Motion15.49015245
Decay Rate-0.00181993
L11 55471U 23015Y 23085.25001157 -.00181993 00000+0 -33498-2 0 9993
L22 55471 43.0009 76.7207 0001418 273.6434 154.0496 15.49015245 8319



Live tracking and technical data element details for STARLINK-5711 (NORAD 55471). STARLINK-5711 can be tracked NOW for your location showing map with azimuth and elevation plus other details from your city location.







IsCatalogInMostPopularTable: catalog: 55471, numindb: -1

Insert: records affected: 1


GetName: 55471 STARLINK-5711

Hit Count: inserted at: Tue, 28 Mar 2023 02:18:47 GMT